GFSNW_850_dewp_120.txt.gz
Dewpoint
-4 -8 -10 -11 -9 -8 -6 -5 3 -3 -4 2 1 3 1 1 1 1 1 1 -1 2 2 3 4 4 2 2 3 4 3 4 5 4 1 2 4 5 4 6 7 5 5 6
-3 -7 -8 -8 -9 -6 -8 -5 -4 -4 -5 4 3 -0 0 0 1 1 1 1 0 -1 2 3 3 3 2 2 3 3 2 4 5 1 1 1 3 3 3 2 3 5 5 6
-3 -7 -8 -6 -7 -7 -6 -6 3 -4 -3 -1 -0 1 1 1 0 1 1 1 0 1 1 1 2 1 1 2 3 3 2 3 3 3 1 1 2 1 0 2 5 4 3 5
-4 -5 -9 -6 -6 -6 -6 -5 -0 -2 3 0 -1 -0 0 1 1 1 0 0 1 1 1 1 1 1 0 1 0 2 3 4 2 1 0 0 1 0 -0 3 3 4 2 3
-8 -4 -8 -7 -6 -6 -5 -3 -1 -2 -1 -1 -1 -1 0 1 1 1 1 0 0 0 1 0 0 1 1 0 -0 -0 -0 4 1 1 -1 1 1 -1 -1 1 1 2 1 2
-9 -6 -5 -9 -5 -7 -4 -4 -4 -4 -1 -1 -1 -2 -0 0 1 0 1 0 1 0 -0 -0 -0 -0 -0 0 1 1 1 2 3 3 -2 -2 -1 -3 -2 1 1 1 2 0
-4 -8 -6 -9 -5 -7 -6 -4 -3 -3 -2 -2 -2 -2 -1 0 -0 0 0 1 0 -1 -0 -0 0 0 0 0 0 0 1 1 2 4 -0 -0 -6 -2 -2 -0 -1 -0 -0 -1
-2 -7 -8 -8 -3 -4 -5 -5 -4 -3 -3 -3 -2 -2 -1 -1 -1 -0 -0 -0 -0 -0 -0 -1 -2 -3 -2 -1 -0 0 -0 0 1 1 -0 -5 -7 -6 -1 0 -2 -2 -1 -2
-0 -7 -6 -8 -3 -2 -2 -2 -2 -4 -4 -4 -3 -2 -2 -2 -1 -2 -1 -1 0 0 -1 -1 -1 -5 -3 -2 -2 -2 -1 -1 1 1 1 -5 -12 -6 -3 -2 -1 -4 -2 -2
2 -7 -3 -5 -4 -2 -2 -2 -2 -4 -3 -4 -4 -2 -2 -1 -2 -2 -1 -0 0 0 -0 1 1 -1 -2 -2 -2 -1 1 1 2 1 1 -4 -7 -4 -3 -2 -8 -6 -3 -2
3 -3 -3 -3 -4 -3 -3 -3 -2 -2 -3 -4 -5 -4 -3 -2 -1 -2 -2 0 -0 -0 1 1 -0 -0 -2 -1 -3 -3 -2 -1 0 0 2 0 -5 -3 -2 -4 -6 -3 -2 -3
4 3 -7 -2 -3 -3 -3 -2 -1 -1 -2 -2 -2 -3 -3 -4 -3 -2 -1 -0 -1 -0 0 -0 -1 0 -1 -2 -3 -5 -2 -5 -6 -3 -4 -5 -6 -3 -4 -5 -4 -4 -3 -4
5 4 3 -8 -1 -1 -2 -2 -1 -1 -2 -2 -2 -2 -3 -2 -2 -3 -1 -0 -0 0 -0 -0 0 1 -1 -0 -1 -2 -5 -5 -4 -3 -7 -5 -6 -6 -6 -6 -5 -5 -4 -5
5 4 4 -1 -6 0 -1 -1 -1 -0 -2 -1 -2 -3 -3 -3 -3 -2 -2 -1 -0 -0 -0 0 1 1 -1 -1 -2 -3 -5 -5 -4 -4 -6 -6 -6 -6 -7 -7 -6 -6 -6 -6
5 5 4 4 -7 -3 2 0 0 -0 -1 -1 -3 -2 -3 -3 -3 -3 -2 -2 -1 -0 -0 0 1 -1 -1 -2 -2 -1 -4 -4 -4 -4 -6 -7 -7 -7 -7 -6 -5 -5 -5 -6
5 4 4 4 0 -2 2 2 0 0 0 -3 -1 -4 -5 -4 -3 -2 -2 -2 -1 -1 -0 -0 -0 -1 -1 1 0 -4 -3 -4 -4 -6 -7 -7 -6 -5 -5 -4 -5 -5 -5 -5
5 4 4 4 3 -3 2 -0 -1 -2 -0 -2 -2 -1 -4 -2 -2 -2 -1 -1 -1 -1 -0 -1 -0 -1 -1 0 0 -5 -5 -6 -5 -5 -5 -4 -5 -4 -4 -7 -12 -13 -10 -7
5 4 4 3 3 -1 2 1 -2 -2 -2 -3 0 -0 -6 -3 -2 -2 -1 -1 -1 -1 -1 -1 -1 -1 -1 1 -2 -3 -4 -4 -4 -4 -4 -4 -4 -4 -13 -13 -12 -12 -11 -11
5 4 3 2 1 1 1 1 1 -2 -2 1 -0 0 0 -3 -2 -2 -2 -1 -1 -1 -1 -1 -1 -1 1 -1 -2 -2 -3 -3 -3 -4 -4 -4 -9 -13 -13 -13 -11 -9 -9 -7
4 3 2 2 1 2 2 0 0 -0 -0 -0 -1 -3 -3 -3 -2 -2 -2 -2 -1 -0 -1 -2 -1 -0 -2 -3 -4 -3 -4 -4 -3 -6 -7 -7 -12 -12 -11 -10 -9 -8 -7 -6
2 2 0 0 0 0 0 0 -0 -1 -1 -2 -1 -1 -3 -4 -2 -1 -2 -1 -2 -0 -1 -1 0 -1 -3 -4 -4 -4 -3 -4 -4 -4 -5 -6 -11 -10 -10 -10 -10 -9 -8 -6
2 1 -0 -1 -0 -0 -0 0 -0 -0 -0 -1 -0 -1 -1 -3 -3 -1 -2 -1 -2 0 -3 -1 -1 -3 -4 -6 -8 -8 -6 -3 -3 -4 -4 -5 -10 -9 -9 -9 -9 -9 -9 -8
1 0 -1 -1 -2 -1 0 1 -0 -1 -2 -2 -2 -1 -2 -2 -3 -2 -2 -0 -1 -4 -2 -1 -3 -5 -7 -7 -8 -11 -6 -4 -3 -3 -4 -9 -9 -9 -9 -9 -8 -8 -8 -8
0 -2 -1 -1 -1 -0 -0 -2 -2 -4 -3 -2 -2 -1 -2 -3 -2 -2 -1 -3 -4 -1 -1 -2 -5 -7 -7 -8 -10 -12 -10 -10 -9 -9 -8 -9 -9 -9 -8 -9 -9 -9 -9 -8
-1 -1 -0 -1 -1 -2 -3 -3 -5 -4 -3 -2 -2 -3 -3 -2 -1 -3 -2 -2 -1 -2 -2 -3 -7 -8 -8 -8 -11 -10 -8 -8 -8 -7 -7 -8 -8 -8 -9 -9 -10 -10 -9 -8
-1 -2 -1 -1 -1 -1 -4 -4 -4 -3 -2 -3 -4 -2 -1 -1 -2 -2 -2 -2 -2 -2 -2 -7 -8 -8 -8 -9 -11 -9 -8 -8 -8 -8 -7 -7 -7 -8 -9 -10 -10 -10 -10 -9
-2 -2 -1 -1 -1 -1 -2 -3 -4 -3 -3 -1 -1 -1 -1 -3 -2 -2 -3 -2 -3 -5 -9 -8 -7 -6 -8 -11 -11 -8 -8 -8 -8 -7 -7 -7 -7 -8 -8 -9 -11 -10 -10 -9

GFSNW_850_dewp_126.txt.gz
Dewpoint
-7 -9 -9 -7 -9 -9 -9 -2 5 -5 2 5 3 5 2 1 1 1 1 1 -0 1 1 1 2 2 1 1 2 2 3 3 4 4 2 1 3 5 5 6 8 7 7 6
-0 -7 -10 -8 -9 -8 -7 -2 -4 -5 -1 7 4 1 1 1 1 1 1 1 0 -1 1 3 2 2 1 1 2 3 2 3 4 4 2 0 2 2 3 3 5 5 7 5
3 -2 -6 -11 -7 -8 -7 -1 5 -1 -0 -0 1 2 2 2 1 1 0 0 0 0 1 0 2 0 1 1 2 2 2 2 3 5 3 2 3 2 2 4 6 4 4 3
4 3 -5 -6 -9 -9 -6 -4 1 -1 6 1 -1 0 0 1 2 1 0 0 0 0 0 -1 -0 -2 0 1 2 1 2 3 2 3 2 2 1 1 0 3 3 4 3 3
5 3 1 -6 -8 -7 -6 1 -1 -3 -1 -1 -0 0 1 0 0 0 0 1 -1 -1 0 -2 -1 -1 -2 -2 1 0 1 3 2 2 1 0 1 -0 -0 -0 0 1 1 2
6 4 3 -5 -8 -7 -6 -6 -6 -1 -1 -1 -1 -1 -2 -1 -0 -0 -0 -0 -0 -0 -0 -0 -1 -1 -1 -1 -0 0 0 2 2 3 1 1 -0 -3 -2 -1 -1 -1 1 -2
5 5 3 -5 -8 -5 -7 -6 -3 -2 -1 -1 -2 -3 -2 -1 -0 0 -1 0 0 0 -2 -2 -1 -0 -0 -1 -1 -1 1 1 2 3 2 2 -3 -3 -3 -1 -3 -3 -3 -1
5 5 4 -3 -6 -4 -5 -6 -5 -1 -1 -4 -4 -4 -3 -2 -2 -0 -1 -1 -1 -0 -1 0 -2 -1 -1 -1 -1 -1 -0 1 2 3 2 -1 -3 -5 -3 -1 -2 -5 -3 -2
5 5 5 1 -4 -3 -3 -3 -3 -5 -1 -3 -5 -4 -4 -2 -3 -3 -1 -2 -1 -2 0 -1 0 -2 -4 -1 0 -3 -0 0 2 2 2 1 -8 -6 -5 -3 -0 -5 -4 -3
6 5 5 5 -2 -2 -2 -2 -2 -2 -0 -2 -4 -3 -2 -3 -3 -3 -2 -1 0 1 1 1 1 -1 -4 -2 -2 1 2 2 3 3 2 1 -5 -5 -3 -1 -6 -4 -4 -4
6 6 5 5 4 -2 -1 -2 -2 -2 -1 -2 -3 -5 -4 -2 -3 -3 -1 0 1 1 1 1 -0 -1 -2 -2 -4 -2 1 2 2 2 2 2 -4 -3 -2 -4 -6 -4 -4 -3
5 5 5 5 5 1 -1 -1 -2 -2 -1 -2 -2 -2 -3 -5 -3 -3 -2 -1 -1 -1 1 1 -1 -1 -2 -2 -3 -5 -3 -4 -3 -1 -0 -5 -5 -7 -7 -5 -5 -4 -4 -4
5 5 5 5 5 4 -1 -0 -1 -1 -1 -1 -1 -1 -2 -2 -3 -3 -3 -3 -2 -1 0 1 1 1 -2 -1 -2 -5 -5 -6 -4 -5 -7 -8 -7 -7 -7 -8 -5 -5 -6 -7
4 5 5 5 5 4 4 -0 -0 -0 -1 -0 -0 -1 -2 -3 -3 -2 -3 -3 -1 -1 0 1 1 1 -3 -2 -3 -3 -6 -6 -5 -4 -6 -7 -8 -9 -8 -7 -7 -6 -7 -7
4 5 5 5 5 4 3 2 -1 1 -1 1 -1 -1 -1 -2 -3 -3 -2 -2 -1 -1 0 1 1 -1 -1 -1 -1 -0 -4 -4 -4 -6 -8 -8 -8 -7 -8 -8 -7 -6 -6 -5
4 4 4 5 5 4 3 1 2 -0 2 1 1 -0 -1 -2 -3 -2 -2 -2 -2 -1 -0 -0 -1 -1 -1 0 0 -3 -4 -5 -6 -7 -7 -7 -7 -6 -7 -7 -7 -6 -5 -6
3 4 4 4 4 4 3 2 1 -0 2 1 0 1 -1 -3 -3 -2 -1 -1 -1 -1 -0 -0 -0 -0 -1 0 0 -4 -5 -5 -5 -5 -6 -6 -6 -6 -6 -6 -6 -5 -5 -12
3 2 3 4 4 4 2 3 2 -0 1 1 0 1 -3 -3 -1 -1 -1 -1 -1 -1 -0 -0 -0 -1 -0 2 -2 -4 -3 -3 -4 -4 -5 -5 -5 -5 -5 -4 -4 -5 -9 -13
0 0 1 2 3 1 1 2 2 1 1 -0 -0 1 2 -3 -1 -1 -1 -1 -1 -1 -0 -0 -1 -0 1 -1 -2 -2 -3 -3 -4 -4 -4 -4 -4 -4 -5 -5 -5 -5 -13 -10
-1 1 2 1 1 1 1 1 -0 -0 -0 0 -1 1 -1 -3 -1 -1 -2 -2 -2 0 -1 -2 0 -0 -2 -3 -3 -3 -2 -2 -4 -3 -3 -4 -4 -4 -4 -4 -5 -10 -11 -10
-0 1 1 1 0 0 -0 -1 -1 -2 -1 -2 -1 0 -2 -3 -1 -1 -2 -0 -1 -0 -1 -1 0 -0 -3 -4 -4 -4 -4 -4 -3 -3 -3 -3 -5 -5 -4 -5 -11 -10 -9 -9
0 1 0 -1 -1 -1 -1 -1 -1 -0 -0 -0 -1 -0 -0 -3 -2 -1 -1 0 -0 1 -1 -0 -0 -3 -4 -4 -5 -7 -7 -5 -4 -4 -4 -3 -3 -7 -10 -11 -10 -10 -10 -10
0 -0 -1 -2 -2 -2 -1 0 1 1 0 0 -0 -0 -1 -2 -2 0 -0 1 1 -3 -1 -1 -2 -3 -4 -6 -7 -7 -7 -7 -7 -8 -4 -3 -3 -8 -10 -10 -10 -10 -10 -10
-1 -1 -1 -2 -0 -1 -1 -1 -1 -1 -1 -0 -1 -1 -1 -0 -1 0 1 0 -1 -1 -1 -1 -3 -5 -7 -9 -8 -8 -8 -9 -9 -6 -5 -3 -3 -5 -8 -9 -9 -10 -10 -10
-1 -2 -1 -1 -2 -1 0 -0 -0 -1 -1 -0 -0 -0 -0 -1 0 -0 1 -1 -0 -1 -1 -2 -5 -6 -7 -7 -7 -7 -8 -11 -9 -4 -3 -3 -3 -4 -5 -9 -9 -10 -10 -10
-3 -2 -2 -1 -1 -1 -0 -1 -1 -2 -1 -0 -0 -0 0 0 0 0 0 1 -0 -1 -1 -5 -5 -4 -6 -7 -7 -6 -8 -10 -11 -6 -3 -3 -3 -5 -8 -9 -8 -8 -8 -9
-3 -3 -2 -1 -1 -1 0 -0 -1 -2 -0 -1 -0 0 0 -0 0 1 0 -0 -1 -2 -4 -4 -1 -1 -7 -7 -7 -7 -7 -9 -11 -9 -7 -5 -7 -7 -8 -8 -7 -7 -7 -7

GFSNW_850_dewp_129.txt.gz
Dewpoint
3 -0 -6 -11 -9 -9 -8 -1 -1 -5 -2 2 2 1 2 1 1 1 1 1 -0 1 1 1 2 2 1 1 2 3 2 2 3 3 2 2 2 3 4 3 7 6 6 5
5 4 -1 -6 -10 -10 -9 -5 -2 -2 0 2 1 1 1 1 1 1 1 1 0 -1 1 3 1 1 1 1 2 2 2 2 2 2 1 1 2 3 4 4 4 5 4 3
4 5 3 -2 -8 -8 -7 -3 0 -1 -1 0 1 1 1 2 1 1 0 1 -0 0 1 0 2 2 1 1 2 2 2 2 2 3 3 2 3 3 3 3 4 3 4 3
5 5 4 2 -5 -8 -6 -4 0 -1 1 -0 -1 -0 1 1 2 1 0 1 0 1 1 -0 1 -1 2 1 2 2 2 3 1 2 2 2 3 3 2 3 3 3 2 2
5 5 5 3 -5 -8 -6 -2 -2 -4 -1 -1 -0 -0 1 1 0 0 1 1 -0 -1 0 -1 -0 -1 -2 -0 3 1 2 2 2 2 1 1 2 1 1 1 0 2 2 2
5 5 5 4 -4 -7 -5 -5 -5 -2 -0 -1 -1 -0 -2 -0 -1 -1 -0 -0 -0 -0 -1 -0 -1 -1 -1 -1 0 1 2 1 1 2 1 1 -0 -1 -2 -1 -1 -1 1 -0
5 5 5 5 -2 -6 -5 -4 -2 -1 -2 -1 -1 -3 -3 -1 -0 -0 -0 -0 0 -1 -1 -2 -3 -1 -0 -0 -1 -1 1 1 1 2 -0 -1 -6 -4 -4 -3 -3 -3 -2 -3
5 5 5 5 1 -5 -4 -4 -4 -1 -1 -2 -4 -4 -3 -3 -2 -1 -1 -1 -1 -0 -2 -0 -2 -3 -1 -1 -0 -1 -1 1 2 2 1 -2 -3 -3 -3 -2 -3 -4 -3 -3
5 5 5 5 5 -1 -4 -3 -3 -3 -0 -3 -5 -4 -4 -3 -2 -2 -1 -1 -1 -1 -1 -1 -0 -2 -4 -1 0 -3 -0 0 2 2 1 1 -9 -7 -4 -3 -5 -5 -4 -4
5 5 5 5 5 4 -2 -2 -2 -2 -1 -3 -3 -4 -3 -4 -3 -3 -2 -1 -1 -1 1 1 1 -1 -5 -3 -0 1 1 1 3 2 2 1 -3 -6 -3 -9 -17 -5 -5 -5
5 5 5 5 5 5 3 -1 -2 -1 -2 -3 -4 -4 -5 -3 -2 -3 -2 -2 0 1 1 1 -0 -1 -2 -2 -3 1 1 2 2 1 2 2 -4 -3 -7 -10 -6 -7 -5 -5
5 5 5 5 5 5 5 2 -0 -1 -2 -3 -4 -3 -3 -3 -4 -4 -3 -2 -0 -0 -0 -0 -1 -1 -2 -2 -1 -5 -2 -1 1 1 0 -4 -5 -6 -7 -6 -5 -6 -6 -6
4 4 4 5 5 5 5 4 1 -0 -1 -1 -1 -2 -2 -2 -3 -3 -2 -2 -2 -1 0 1 1 1 -2 -1 -2 -5 -6 -6 -4 -5 -7 -5 -5 -6 -6 -6 -7 -6 -5 -5
4 4 4 4 5 5 5 4 4 1 -0 -0 -1 -1 -1 -2 -2 -2 -3 -3 -2 -1 0 -0 1 1 -2 -2 -3 -3 -5 -6 -5 -5 -7 -7 -8 -8 -9 -8 -8 -8 -7 -6
3 4 3 3 4 5 4 4 4 2 1 0 -0 -0 -0 -0 -1 -2 -3 -2 -2 -2 -0 0 1 0 -1 -2 -1 -1 -4 -5 -4 -6 -9 -8 -9 -9 -8 -8 -8 -8 -7 -6
3 3 3 3 4 4 4 2 2 3 1 0 1 -0 -0 -1 -1 -1 -2 -3 -2 -1 -1 -1 -1 -1 -1 0 0 -4 -5 -6 -6 -7 -8 -8 -8 -7 -7 -7 -7 -8 -8 -7
2 2 3 3 3 3 4 2 3 2 2 1 0 -0 -1 -1 -3 -3 -2 -2 -1 -1 -1 0 -1 -0 -0 -1 0 -4 -5 -5 -6 -5 -5 -5 -5 -6 -6 -6 -6 -6 -6 -6
-0 1 1 2 1 2 3 3 3 2 1 1 1 0 -2 -3 -2 -2 -1 -1 -1 -1 -0 0 -0 -1 -1 1 -1 -3 -3 -3 -4 -4 -5 -4 -5 -5 -5 -5 -5 -5 -5 -5
-3 -1 0 0 1 2 2 2 2 2 2 0 -0 0 1 -3 -1 -1 -2 -1 -0 -2 -0 -0 -1 -1 1 -1 -2 -2 -3 -3 -3 -3 -3 -4 -4 -4 -4 -4 -4 -5 -5 -5
-7 -3 -1 2 1 1 1 1 -0 -0 -0 -0 -1 -0 -1 -2 -1 -2 -2 -1 -1 -0 -1 -1 0 -0 -2 -3 -3 -3 -3 -3 -2 -2 -2 -2 -3 -4 -4 -4 -4 -4 -4 -5
-7 -1 0 1 1 0 0 -1 -2 -1 -2 -2 -1 -0 -1 -2 -2 -1 -2 -0 -1 0 -1 -1 -0 -0 -3 -4 -4 -4 -4 -4 -5 -4 -3 -3 -3 -3 -4 -5 -5 -4 -4 -5
-1 -0 0 -0 -1 -1 -1 -1 -1 -1 -2 -1 -1 -1 0 -2 -2 -1 -1 0 -1 0 -2 -0 -1 -3 -4 -4 -6 -8 -7 -7 -7 -7 -5 -4 -4 -3 -3 -4 -6 -4 -8 -9
-7 -5 -1 -2 -2 -2 -1 -2 -0 0 -1 -0 -1 -0 -0 -1 -1 0 -1 -0 1 -1 -1 -2 -3 -4 -4 -6 -8 -7 -7 -8 -8 -9 -10 -9 -6 -4 -3 -4 -9 -10 -9 -9
-4 -2 -2 -3 -4 -3 -4 -4 -4 -2 -1 -0 -1 -1 -1 -0 -1 0 1 -0 -1 -1 -2 -3 -4 -5 -6 -5 -5 -7 -6 -7 -8 -11 -8 -5 -5 -3 -3 -9 -9 -9 -9 -10
-2 -2 -3 -4 -4 -3 -1 -1 -1 -1 -0 -1 -0 -0 -1 -1 -0 -0 0 -0 0 -1 -2 -3 -5 -4 -2 -2 -3 -6 -7 -7 -8 -10 -7 -3 -3 -3 -4 -9 -8 -9 -9 -9
-2 -2 -2 -2 -1 -2 -2 -1 -0 -1 -0 -0 -0 0 -0 -0 -0 0 0 -0 -1 -2 -2 -5 -3 -1 -1 -3 -5 -6 -7 -6 -7 -10 -9 -4 -3 -3 -4 -5 -7 -9 -8 -7
-2 -3 -4 -4 -2 -3 -1 -0 -0 -0 -0 -1 -0 0 -1 -1 -0 -0 -2 -2 -3 -3 -2 -1 -4 -3 -4 -6 -6 -5 -6 -1 -2 -5 -7 -8 -4 -3 -4 -5 -8 -8 -7 -6

GFSNW_850_dewp_132.txt.gz
Dewpoint
3 4 4 1 -5 -10 -9 -3 -4 -3 0 -0 0 0 1 0 0 0 1 1 0 1 0 1 2 2 1 0 1 3 2 2 2 3 1 1 2 2 3 2 3 5 6 5
2 4 5 4 -0 -9 -9 -6 -2 -2 -0 0 0 1 1 1 1 1 1 2 -0 -1 1 3 1 1 1 1 2 2 1 2 2 2 1 2 3 3 3 3 4 5 4 3
4 4 5 4 2 -6 -9 -5 -2 -1 -0 0 -0 1 1 2 1 1 1 1 -0 0 1 0 2 2 2 1 2 2 2 2 2 2 2 2 3 3 4 4 5 3 4 2
6 4 4 5 2 -5 -8 -3 -1 -2 -0 -1 0 0 1 2 2 1 0 1 1 1 1 1 2 -0 2 2 2 2 2 3 0 1 1 1 2 2 2 4 4 4 1 2
6 5 5 5 3 -4 -5 -6 -1 -2 -1 -1 -1 -0 1 1 0 1 1 1 0 0 1 -2 -1 -2 0 1 3 2 2 2 2 2 1 1 2 1 2 2 2 3 3 3
6 5 5 5 4 -2 -5 -3 -3 -2 -2 -2 -1 -1 -2 0 -1 -1 -1 0 -1 -0 -1 -2 -2 -2 -2 -1 2 2 2 2 1 2 -0 0 -1 -3 -2 0 1 1 2 -1
5 5 5 5 5 -0 -4 -4 -4 -2 -4 -1 -1 -3 -2 -1 -0 -2 -0 -0 -1 -2 -1 -1 -2 -1 -1 -0 -1 -0 1 1 0 2 -0 -1 -5 -6 -5 -2 -3 -2 -2 -4
5 5 5 5 5 4 -3 -3 -4 -1 -1 -2 -3 -3 -3 -3 -2 -0 -1 -0 -1 -1 -1 -2 -3 -5 -1 -0 -0 -0 -1 1 2 2 1 -1 -4 -4 -2 -2 -6 -5 -4 -4
5 5 5 4 5 5 3 -2 -3 -3 -1 -4 -4 -4 -4 -3 -3 -3 -1 -1 -1 -0 -1 -0 -3 -5 -5 -2 0 -2 -0 -0 1 2 2 1 -11 -8 -4 -5 -7 -10 -4 -4
5 5 5 4 5 5 4 2 -1 -2 -1 -3 -3 -4 -4 -4 -3 -3 -2 -1 -0 -1 0 1 1 -1 -5 -2 0 1 2 2 2 1 1 1 -2 -6 -4 -9 -18 -8 -5 -5
5 5 5 4 5 5 5 5 2 -0 -2 -3 -3 -4 -4 -3 -3 -3 -3 -2 -0 1 1 1 0 -1 -2 -4 -4 1 1 1 1 1 1 1 -4 -4 -5 -9 -8 -7 -6 -7
5 4 4 4 4 5 5 5 4 2 -0 -1 -2 -3 -4 -4 -5 -4 -2 -3 -1 -1 -0 -1 -1 -0 -2 -2 -1 -2 -1 -1 0 -0 -0 -5 -4 -5 -7 -6 -6 -7 -7 -8
4 5 4 4 4 5 5 5 5 3 1 1 1 1 -0 -1 -2 -3 -3 -3 -3 -1 -1 -1 0 0 -2 -1 -2 -4 -5 -4 -3 -3 -4 -3 -4 -5 -5 -6 -6 -7 -7 -6
4 4 4 4 4 4 4 5 5 4 2 1 1 2 0 -0 -1 -2 -2 -3 -2 -2 0 0 0 1 -1 -1 -3 -3 -6 -6 -5 -4 -7 -7 -7 -8 -9 -9 -9 -8 -8 -8
3 3 2 3 3 3 4 4 4 4 3 1 0 2 2 1 0 -1 -2 -1 -1 -2 -0 1 1 0 -0 -2 -1 -1 -5 -5 -5 -5 -8 -9 -9 -9 -9 -9 -8 -7 -8 -7
0 1 1 3 3 3 4 4 3 3 4 1 1 1 0 -0 -0 -1 -1 -2 -1 -1 -1 -1 -2 -2 -1 0 0 -3 -4 -4 -5 -5 -6 -6 -6 -7 -7 -7 -7 -6 -7 -7
-2 -1 0 1 2 2 3 3 3 3 2 1 0 0 0 -1 -2 -2 -2 -2 -1 -1 -1 0 -1 -1 -0 0 1 -3 -3 -4 -4 -5 -5 -5 -5 -5 -6 -6 -5 -5 -6 -6
-6 -4 -2 -0 1 1 1 2 2 3 2 1 1 1 -1 -2 -2 -2 -1 -1 -1 -0 -0 0 -1 -1 -1 1 -2 -2 -2 -3 -3 -3 -3 -3 -3 -4 -4 -4 -4 -4 -5 -5
-7 -7 -6 -3 -2 1 1 1 2 2 2 -0 -0 1 1 -2 -2 -1 -2 -1 -0 -1 -0 -0 -1 -1 1 -1 -2 -2 -2 -2 -2 -3 -3 -3 -3 -3 -3 -3 -3 -3 -4 -4
-6 -7 -5 -0 1 1 0 1 0 0 -0 -1 -1 -0 -0 -1 -1 -1 -2 -1 -1 0 -1 -1 -0 -0 -2 -3 -3 -2 -3 -3 -3 -3 -2 -2 -2 -2 -3 -3 -3 -3 -4 -4
-7 -4 -0 -0 0 0 -0 -0 -2 -1 -2 -2 -1 -0 -0 -2 -1 -1 -1 -1 -1 -0 -2 -1 -1 -1 -3 -4 -4 -4 -6 -7 -7 -6 -6 -5 -4 -4 -3 -3 -3 -3 -4 -4
-3 -2 -2 -1 -0 -1 -1 -1 -2 -2 -2 -2 -1 -1 0 -1 -1 -0 -1 0 -1 -0 -2 -1 -2 -3 -4 -4 -5 -6 -6 -6 -7 -7 -8 -9 -8 -7 -5 -4 -3 -3 -3 -4
-4 -7 -3 -2 -2 -2 -2 -3 -2 -1 -2 -1 -1 -0 -0 -1 -1 -0 -1 -0 -0 -2 -1 -2 -3 -5 -5 -6 -5 -3 -4 -6 -6 -8 -10 -8 -5 -4 -6 -5 -4 -3 -5 -5
-3 -3 -2 -2 -3 -2 -5 -5 -5 -3 -1 -1 -1 -0 -1 -1 -1 -0 1 -1 -1 -0 -2 -3 -5 -5 -5 -1 -2 -3 -4 -5 -5 -7 -10 -6 -4 -5 -3 -3 -5 -9 -9 -8
-3 -3 -3 -3 -4 -4 -2 -3 -3 -2 -1 -1 -1 -1 -1 -0 -0 -0 0 0 -1 -2 -3 -4 -5 -2 -1 -4 -5 -5 -5 -6 -2 -7 -10 -8 -4 -3 -3 -6 -8 -7 -8 -9
-4 -3 -2 -4 -4 -5 -3 -2 -1 -1 -1 -0 -0 -0 -0 -1 -2 0 -0 -1 -4 -4 -3 -3 -1 -1 -2 -4 -5 -9 -11 -8 -2 -2 -2 -3 -6 -4 -3 -5 -6 -6 -7 -8
-5 -4 -5 -3 -4 -5 -6 -4 -5 -3 -0 -0 -0 -0 -2 -3 -4 -1 -2 -2 -2 -2 -0 1 1 0 -0 -1 -5 -9 -12 -14 -14 -5 -2 -2 -1 -2 -4 -3 -4 -4 -6 -7

GFSNW_850_dewp_135.txt.gz
Dewpoint
3 3 4 4 3 -2 -10 -8 -5 -4 -0 -1 -0 -0 1 -0 -1 0 1 1 1 0 0 1 2 2 1 0 0 2 1 1 2 3 1 1 2 3 2 2 1 4 5 4
5 4 4 4 3 0 -8 -7 -3 -2 -1 -1 -0 1 1 1 1 1 1 2 0 -1 1 3 1 1 1 1 1 2 1 1 1 1 1 2 3 3 2 1 2 4 4 3
5 4 4 5 3 -1 -6 -7 -2 -3 -1 -1 -1 1 1 1 1 1 1 1 0 0 1 0 2 1 2 1 2 2 1 1 1 -2 1 1 4 2 3 3 4 3 3 2
4 5 4 5 4 -0 -4 -5 -1 -3 -2 -1 -0 -0 0 2 1 1 0 0 1 1 2 1 2 0 2 2 2 2 1 3 0 1 1 1 2 2 2 4 3 3 -2 1
4 5 5 5 4 1 -5 -6 -3 -2 -2 -1 -1 -1 0 1 0 0 1 1 -0 0 1 -0 -1 -0 1 1 2 2 1 2 1 2 1 1 2 1 1 1 2 3 3 3
4 4 5 4 5 2 -4 -4 -3 -3 -2 -2 -1 -2 -2 -0 -0 -1 -1 -0 -0 0 -0 -1 -2 -2 -2 -2 2 2 2 2 1 1 -1 -0 -2 -2 -0 0 0 -0 1 -1
5 4 5 4 5 5 -1 -3 -4 -2 -5 -1 -1 -3 -1 -1 -1 -1 -0 -0 -1 -2 -1 -1 -2 -1 -1 -1 0 1 1 1 0 2 -1 -2 -8 -6 -5 -2 -3 -1 -1 -2
5 5 5 5 4 5 4 -2 -4 -2 -2 -2 -3 -3 -3 -3 -2 -1 -1 -1 -0 -1 -1 -3 -3 -6 -3 -1 -1 -0 -1 0 1 2 1 -2 -6 -5 -4 -3 -4 -4 -2 -2
5 5 5 5 5 5 5 4 -1 -3 -2 -3 -4 -4 -4 -3 -3 -3 -2 -1 -1 -0 -1 -1 -4 -7 -7 -3 0 -1 -1 -1 1 2 2 0 -11 -8 -4 -8 -9 -10 -6 -5
5 5 5 5 5 5 5 5 4 -1 -2 -3 -3 -3 -4 -4 -4 -4 -3 -1 0 -0 -0 0 0 -2 -5 -3 1 2 2 2 3 1 1 -0 -3 -6 -4 -10 -15 -12 -8 -7
5 5 5 5 5 4 5 5 5 3 -1 2 1 -1 -3 -3 -3 -3 -4 -2 -1 -0 1 0 -0 -1 -2 -4 -3 0 1 1 2 1 2 2 -4 -4 -4 -9 -12 -8 -8 -7
3 4 5 4 4 4 4 5 5 4 2 3 4 4 3 -2 -2 -3 -3 -3 -1 -1 -1 -1 -1 -0 -2 -2 -2 -2 -1 -1 0 -0 -0 -4 -5 -5 -6 -7 -6 -6 -7 -7
3 4 4 4 4 4 4 4 5 4 2 3 3 3 2 2 1 0 -2 -3 -3 -1 -2 -2 -1 0 -2 -1 -2 -3 -3 -3 -2 -3 -5 -4 -4 -5 -7 -7 -6 -7 -7 -6
3 3 4 4 4 3 4 4 4 4 3 1 2 3 2 1 1 0 -1 -2 -3 -3 -1 0 1 1 -1 -1 -3 -3 -5 -4 -3 -4 -6 -7 -7 -7 -7 -8 -8 -8 -8 -8
1 1 1 1 1 1 3 3 3 3 4 3 2 2 2 2 2 2 -1 -1 -1 -1 0 1 1 -0 -0 -1 -2 -1 -4 -4 -3 -3 -5 -6 -6 -7 -7 -6 -6 -6 -6 -7
-2 -3 -1 -0 0 2 3 3 3 3 3 2 1 1 1 1 1 1 1 -0 -1 -0 1 1 -0 -0 -1 2 1 -2 -2 -3 -4 -3 -3 -4 -5 -4 -5 -5 -5 -5 -5 -5
-5 -4 -3 -3 -1 1 2 2 2 2 2 1 0 0 1 0 -1 -1 -1 -1 -1 -1 0 0 1 -1 -0 1 2 -2 -2 -2 -3 -3 -3 -3 -4 -4 -4 -4 -4 -4 -4 -4
-6 -7 -8 -7 -4 -1 -0 -0 1 2 2 1 0 1 0 -1 -2 -2 -1 -1 -1 -0 0 -0 -0 -0 0 1 -1 -2 -2 -2 -2 -2 -2 -2 -2 -3 -3 -3 -3 -3 -3 -3
-6 -7 -8 -8 -8 -1 -0 -1 1 2 2 -0 -1 1 1 -0 -2 -2 -1 -1 -0 -1 -0 -0 0 -0 1 -1 -2 -2 -2 -2 -3 -3 -3 -3 -3 -3 -3 -3 -3 -3 -3 -3
-7 -6 -8 -2 -1 -1 -1 -2 0 0 0 -0 -1 0 0 -1 -1 -1 -1 -1 -1 0 -1 -1 -0 -0 -2 -3 -2 -2 -2 -3 -3 -3 -4 -5 -5 -5 -4 -4 -5 -4 -3 -3
-4 -5 -2 -2 -2 -1 -1 -0 -1 -1 -1 -1 -1 -0 -1 -1 -1 -1 -1 -1 -1 0 -2 -0 0 -1 -3 -3 -4 -3 -4 -5 -6 -6 -7 -7 -7 -8 -8 -8 -7 -6 -4 -3
-3 -2 -2 -2 -2 -2 -1 -1 -2 -3 -3 -3 -2 -1 -1 -1 -1 -0 -1 -0 -1 -0 -2 -0 -1 -3 -4 -4 -4 -5 -4 -5 -6 -7 -9 -10 -7 -4 -4 -4 -5 -6 -3 -3
-4 -3 -6 -3 -3 -2 -2 -4 -3 -2 -3 -2 -2 -1 -0 -1 -1 -1 -1 -0 -0 -2 -2 -2 -4 -5 -5 -5 -2 -4 -5 -5 -4 -6 -9 -8 -6 -5 -4 -4 -4 -4 -3 -4
-3 -3 -4 -4 -6 -2 -3 -5 -6 -4 -3 -1 -2 -1 -1 -1 -1 -0 1 -2 -1 -0 -2 -3 -5 -5 -3 -3 -4 -8 -10 -8 -3 -4 -6 -4 -4 -5 -4 -4 -6 -8 -8 -7
-4 -3 -4 -5 -5 -5 -4 -4 -4 -4 -1 -1 -1 -1 -1 -1 -0 -1 -1 -0 -1 -2 -4 -5 -3 0 -0 -1 -2 -3 -5 -9 -11 -11 -5 -3 -2 -3 -4 -4 -7 -7 -6 -7
-5 -4 -4 -4 -4 -5 -4 -3 -2 -2 -2 -1 -1 -2 -1 -0 -1 -1 -0 0 -1 -2 -4 -2 -0 -0 -1 -0 -0 -2 -5 -7 -8 -11 -13 -12 -7 -2 -2 -3 -3 -5 -6 -7
-4 -5 -7 -6 -6 -5 -5 -5 -5 -6 -2 -3 -3 -2 -2 -6 -2 -1 -4 -4 -4 -1 -1 -4 -2 -1 -0 -4 -5 -9 -11 -8 -12 -12 -11 -8 -11 -7 -3 -3 -4 -4 -4 -4

GFSNW_850_dewp_138.txt.gz
Dewpoint
4 4 4 3 3 1 -4 -9 -6 -3 -2 -1 -1 -1 -1 -1 -1 0 1 0 -0 -0 -0 1 1 1 0 -0 0 2 1 0 1 3 0 0 1 2 2 2 2 3 3 4
4 4 4 4 3 2 -4 -6 -4 -4 -3 -1 -0 1 1 1 0 1 1 1 0 -1 1 2 1 1 1 0 1 2 1 1 -0 -0 1 2 3 2 1 1 1 4 4 2
3 4 4 4 4 2 -3 -6 -3 -5 -3 -1 -1 0 0 1 1 1 1 1 -0 0 1 0 2 1 1 1 1 1 1 1 0 -4 -2 1 4 3 2 2 4 3 3 1
3 4 4 4 4 2 -3 -5 -3 -4 -1 -1 -0 -1 -0 1 1 1 1 0 1 1 1 1 1 0 2 1 2 2 1 3 0 1 1 1 1 2 2 3 3 3 -1 1
4 4 3 3 4 3 -3 -5 -4 -3 -2 -1 -1 -1 0 1 0 -0 1 1 -1 0 0 -1 -2 -0 1 0 2 2 1 2 1 1 0 1 2 1 1 1 3 3 3 3
4 4 4 4 4 4 -1 -4 -3 -3 -3 -2 -2 -3 -3 -1 -0 -1 -2 -0 -0 0 -0 -1 -2 -3 -3 -2 1 2 2 2 1 1 -1 -0 -2 -3 -0 -0 -1 0 2 -0
5 5 5 4 4 4 4 -2 -4 -2 -5 -2 -2 -3 -2 -1 -1 -1 -1 -0 -1 -2 -1 -2 -2 -1 -1 -1 -0 1 1 1 -0 1 -1 -3 -8 -7 -5 -2 -2 -2 -2 -4
5 5 5 5 4 4 4 3 -2 -3 -3 -3 -4 -3 -3 -3 -3 -1 -1 -1 -1 -1 -2 -3 -5 -7 -5 -1 -1 -0 -1 0 1 2 1 -1 -8 -5 -4 -3 -5 -4 -2 -3
4 4 4 5 5 5 5 5 3 -2 -3 -2 -4 -4 -4 -3 -3 -4 -3 -1 -1 -1 -2 -2 -3 -6 -9 -5 0 -1 -1 -1 0 1 2 1 -10 -8 -4 -6 -11 -13 -4 -4
4 4 4 5 5 4 4 5 5 2 -1 -1 -3 -3 -4 -4 -4 -4 -4 -1 0 -0 -1 0 0 -2 -5 -4 0 2 2 2 3 2 2 -0 -3 -4 -5 -8 -16 -12 -7 -7
4 4 4 5 4 4 4 4 4 4 -0 3 3 0 -1 -2 -3 -3 -4 -2 -1 -0 1 -0 -1 -1 -3 -4 -3 0 1 1 2 1 3 2 -4 -4 -3 -9 -12 -7 -7 -8
4 4 3 4 4 4 4 4 5 5 3 3 4 4 4 4 3 -3 -3 -3 -2 -1 0 -1 -1 -0 -1 -3 -3 -2 0 -1 0 -0 -0 -4 -5 -5 -6 -6 -6 -7 -6 -7
3 2 3 4 4 4 4 4 4 4 3 3 3 3 2 2 2 2 -2 -2 -3 -2 -2 -2 -1 1 -2 -0 -1 -3 -3 -3 -2 -2 -3 -4 -4 -5 -6 -6 -7 -7 -7 -7
2 2 2 2 3 3 2 3 4 3 3 1 2 2 2 2 1 1 1 0 -1 -1 -1 0 2 3 -1 -1 -3 -3 -5 -3 -3 -3 -4 -5 -6 -6 -6 -5 -5 -6 -7 -6
0 1 1 1 1 0 0 1 1 1 2 2 2 2 1 1 2 2 1 -0 -0 -1 1 1 2 1 0 0 -1 -1 -4 -4 -3 -2 -4 -3 -4 -4 -4 -4 -4 -4 -4 -4
-6 -4 -3 -4 -2 -1 -1 1 2 3 3 2 1 1 1 1 1 1 1 1 -1 -0 1 1 1 2 0 2 2 -2 -2 -2 -3 -4 -3 -3 -4 -3 -3 -3 -3 -3 -4 -4
-7 -7 -7 -6 -5 -3 -2 1 2 2 2 2 0 1 1 1 1 -0 -1 -1 -1 -1 0 0 0 0 0 1 2 -2 -2 -2 -2 -2 -2 -2 -2 -3 -2 -2 -2 -2 -3 -3
-8 -7 -7 -8 -9 -8 -7 -5 -2 0 1 1 0 1 0 0 -1 -2 -1 -1 -1 -1 -0 0 0 0 0 1 -1 -2 -2 -2 -2 -2 -2 -2 -2 -2 -4 -5 -5 -4 -3 -4
-18 -15 -10 -9 -11 -8 -5 -3 -1 -0 0 1 -0 1 -1 -1 -1 -2 -1 -1 -0 -1 -0 -0 -0 -0 1 -1 -2 -2 -2 -2 -2 -2 -2 -2 -3 -5 -6 -7 -7 -5 -7 -7
-16 -11 -7 -5 -1 -2 -2 -2 -1 -1 -0 0 -1 -0 1 -1 -1 -1 -1 -1 -1 0 -1 -1 0 0 -2 -3 -2 -2 -3 -2 -2 -2 -3 -4 -6 -7 -8 -8 -5 -4 -4 -5
-7 -5 -5 -3 -3 -4 -4 -1 -1 -1 -1 -1 -2 -1 -2 -2 -1 -1 -1 -1 -1 -1 -3 -1 -0 -1 -3 -4 -4 -3 -3 -4 -4 -5 -6 -6 -7 -8 -5 -4 -4 -4 -4 -5
-3 -3 -4 -3 -2 -3 -2 -2 -2 -2 -3 -3 -2 -2 -2 -1 -1 -1 -0 -1 -2 -1 -2 -1 -1 -4 -4 -5 -4 -4 -5 -5 -5 -5 -8 -7 -4 -4 -4 -4 -4 -4 -4 -4
-9 -5 -4 -4 -4 -3 -3 -6 -2 -2 -3 -3 -3 -2 -2 -1 -1 -1 -1 -1 -1 -2 -1 -1 -4 -5 -2 -2 -4 -6 -6 -6 -4 -3 -2 -4 -7 -3 -3 -4 -5 -7 -8 -8
-8 -4 -5 -4 -6 -4 -5 -6 -7 -5 -4 -2 -2 -2 -1 -1 -1 -1 0 -0 -1 -1 -1 -4 -6 -2 -1 -1 -1 -1 -1 -2 -2 -4 -8 -12 -12 -12 -3 -3 -3 -6 -7 -8
-6 -5 -6 -8 -6 -6 -5 -4 -4 -5 -3 -2 -1 -1 -1 -1 -1 -2 -2 -1 -1 -3 -4 -6 -1 -1 -1 -1 -1 -2 -3 -6 -4 -2 -4 -6 -13 -12 -13 -6 -3 -3 -5 -6
-5 -5 -5 -4 -5 -5 -5 -5 -4 -3 -3 -3 -2 -2 -2 -3 -2 -2 -3 -2 -3 -2 -2 -1 -3 -3 -5 -4 -2 -4 -5 -8 -9 -8 -8 -6 -10 -9 -9 -12 -12 -6 -4 -4
-4 -5 -6 -7 -7 -6 -8 -8 -9 -9 -5 -5 -5 -3 -3 -4 -3 -3 -5 -5 -6 -2 -1 -2 -4 -6 -8 -6 -4 -4 -4 -9 -10 -11 -8 -6 -9 -9 -8 -11 -13 -12 -12 -11